Change the Weather History Date:

Monday, November 14, 2011

  Actual Average Record
Temperature  
Mean Temperature 50 °F 46 °F  
Max Temperature 63 °F 57 °F 78 °F (1897)
Min Temperature 37 °F 35 °F 7 °F (1940)
Degree Days  
Heating Degree Days 15 19  
Month to date heating degree days 224 220  
Since 1 July heating degree days 449 506  
Cooling Degree Days 0 0  
Month to date cooling degree days 0 0  
Year to date cooling degree days 2310 1684  
Growing Degree Days 2 (Base 50)    
Moisture  
Dew Point 36 °F    
Average Humidity 54    
Maximum Humidity 79    
Minimum Humidity 29    
Precipitation  
Precipitation 0.00 in 0.05 in 1.91 in (1931)
Month to date precipitation 2.19 0.78  
Year to date precipitation 21.24 30.79  
Snow  
Snow 0.00 in 0.00 in 0.30 in (1929)
Month to date snowfall 0.3 0.2  
Since 1 July snowfall 0.3 0.3  
Since 1 September snowfall 0.3 0.3  
Snow Depth 0.00 in    
Sea Level Pressure  
Sea Level Pressure 29.72 in    
Wind  
Wind Speed 8 mph (West)    
Max Wind Speed 20 mph    
Max Gust Speed 25 mph    
Visibility 10 miles    
Events      
T = Trace of Precipitation, MM = Missing Value Source: NWS Daily Summary

Daily Weather History Graph

Daily Weather History Graph

Search for Another Location

Airport or City:

Trip Planner

Search our weather history database for the weather conditions in past years. The results will help you decide how hot, cold, wet, or windy it might be!

Date:

Astronomy

Nov. 14, 2011 Rise Set
Actual Time 7:08 AM CST 5:19 PM CST
Civil Twilight 6:40 AM CST 5:47 PM CST
Nautical Twilight 6:08 AM CST 6:18 PM CST
Astronomical Twilight 5:37 AM CST 6:49 PM CST
Moon 8:29 PM CST (11/14) 10:26 AM CST (11/14)
Length of Visible Light 11h 06m
Length of Day
10h 11m
Waning Gibbous, 86% of the Moon is Illuminated
Nov 14
Waning Gibbous
Nov 18
Last Quarter
Nov 25
New
Dec 2
First Quarter
Dec 10
Full

Hourly Weather History & Observations

Time (CST) Temp. Windchill Dew Point Humidity Pressure Visibility Wind Dir Wind Speed Gust Speed Precip Events Conditions
12:53 AM 55.9 °F - 44.1 °F 64% 29.49 in 10.0 mi SSW 11.5 mph - N/A   Overcast
1:53 AM 55.0 °F - 44.1 °F 67% 29.50 in 10.0 mi SW 9.2 mph - N/A   Mostly Cloudy
2:53 AM 55.0 °F - 44.1 °F 67% 29.51 in 10.0 mi SW 11.5 mph - N/A   Mostly Cloudy
3:53 AM 53.1 °F - 43.0 °F 69% 29.55 in 10.0 mi NNW 5.8 mph - N/A   Mostly Cloudy
4:53 AM 51.1 °F - 39.9 °F 66% 29.62 in 10.0 mi West 16.1 mph 23.0 mph N/A   Overcast
5:53 AM 46.4 °F 40.7 °F 37.4 °F 71% 29.68 in 10.0 mi NW 12.7 mph - N/A   Mostly Cloudy
6:53 AM 46.9 °F - 35.1 °F 63% 29.71 in 10.0 mi NW 12.7 mph - N/A   Mostly Cloudy
7:53 AM 46.9 °F - 36.0 °F 66% 29.74 in 10.0 mi NW 6.9 mph - N/A   Mostly Cloudy
8:53 AM 51.1 °F - 36.0 °F 56% 29.78 in 10.0 mi NW 5.8 mph - N/A   Overcast
9:53 AM 55.0 °F - 36.0 °F 49% 29.80 in 10.0 mi NW 5.8 mph - N/A   Overcast
10:53 AM 61.0 °F - 32.0 °F 34% 29.80 in 10.0 mi NW 17.3 mph 21.9 mph N/A   Overcast
11:53 AM 62.1 °F - 30.0 °F 30% 29.81 in 10.0 mi NNW 10.4 mph - N/A   Overcast
12:53 PM 62.1 °F - 30.0 °F 30% 29.78 in 10.0 mi NNW 13.8 mph - N/A   Overcast
1:53 PM 61.0 °F - 28.9 °F 30% 29.77 in 10.0 mi NW 9.2 mph - N/A   Mostly Cloudy
2:53 PM 60.1 °F - 30.0 °F 32% 29.76 in 10.0 mi WNW 5.8 mph - N/A   Mostly Cloudy
3:53 PM 57.9 °F - 34.0 °F 41% 29.77 in 10.0 mi West 4.6 mph - N/A   Mostly Cloudy
4:53 PM 54.0 °F - 35.1 °F 49% 29.77 in 10.0 mi South 3.5 mph - N/A   Mostly Cloudy
5:53 PM 50.0 °F - 35.1 °F 57% 29.78 in 10.0 mi South 6.9 mph - N/A   Mostly Cloudy
6:53 PM 48.9 °F - 36.0 °F 61% 29.78 in 10.0 mi South 8.1 mph - N/A   Mostly Cloudy
7:53 PM 48.9 °F - 36.0 °F 61% 29.77 in 10.0 mi Calm Calm - N/A   Scattered Clouds
8:53 PM 45.0 °F - 36.0 °F 71% 29.78 in 10.0 mi Calm Calm - N/A   Scattered Clouds
9:53 PM 41.0 °F - 36.0 °F 82% 29.78 in 10.0 mi Calm Calm - N/A   Partly Cloudy
10:53 PM 43.0 °F - 35.1 °F 74% 29.78 in 10.0 mi Calm Calm - N/A   Clear
11:53 PM 39.0 °F 36.8 °F 35.1 °F 86% 29.77 in 10.0 mi South 3.5 mph - N/A   Clear